Location: Bush Observatory
(40.2653°N, 94.3194°W)
Time: 02:39:48
(UTC-06:00)

JAS-2 - Visible Passes

Search period start: 22 November 2014 00:00
Search period end: 02 December 2014 00:00
Orbit: 801 x 1321 km, 98.5° (Epoch: 21 November)

Date Brightness Start Highest point End Pass type
(mag) Time Alt. Az. Time Alt. Az. Time Alt. Az.
22 Nov 12.7 03:53:48 10° ENE 03:55:23 11° E 03:56:55 10° E visible
22 Nov 10.0 05:34:30 10° NNE 05:41:50 74° ESE 05:48:16 10° S visible
22 Nov 11.1 17:28:37 10° S 17:35:49 51° W 17:43:27 10° NNW visible
23 Nov 11.6 04:40:21 10° NNE 04:46:26 29° E 04:51:54 10° SSE visible
23 Nov 10.0 06:24:48 10° N 06:31:46 50° WNW 06:37:57 10° SW visible
23 Nov 12.5 18:20:49 10° SW 18:26:29 23° W 18:32:23 10° NW visible
24 Nov 10.1 05:29:46 10° NNE 05:36:58 69° E 05:43:16 10° S visible
24 Nov 11.0 17:23:40 10° S 17:31:00 54° W 17:38:43 10° NNW visible
25 Nov 11.7 04:35:44 10° NE 04:41:30 27° E 04:46:43 10° SSE visible
25 Nov 9.9 06:20:01 10° N 06:26:56 53° WNW 06:33:03 10° SW visible
25 Nov 12.4 18:15:42 10° SW 18:21:38 25° W 18:27:46 10° NW visible
26 Nov 10.1 05:25:02 10° NNE 05:32:05 65° E 05:38:14 10° S visible
26 Nov 10.9 17:18:45 10° S 17:26:12 58° W 17:33:58 10° NNW visible
27 Nov 11.8 04:31:08 10° NE 04:36:34 24° E 04:41:30 10° SE visible
27 Nov 9.8 06:15:14 10° N 06:22:06 56° WNW 06:28:08 10° SW visible
27 Nov 12.3 18:10:37 10° SW 18:16:47 26° W 18:23:08 10° NW visible
28 Nov 10.2 05:20:18 10° NNE 05:27:11 60° E 05:33:11 10° S visible
28 Nov 10.8 17:13:51 10° S 17:21:25 61° W 17:29:12 10° NNW visible
29 Nov 11.9 04:26:32 10° NE 04:31:37 22° E 04:36:15 10° SE visible
29 Nov 9.7 06:10:27 10° N 06:17:15 59° WNW 06:23:12 10° SSW visible
29 Nov 12.2 18:05:34 10° SSW 18:11:56 28° W 18:18:27 10° NW visible
30 Nov 10.3 05:15:35 10° NNE 05:22:16 55° E 05:28:08 10° S visible
30 Nov 10.7 17:08:58 10° S 17:16:37 65° W 17:24:26 10° NNW visible
30 Nov 13.1 19:01:12 10° W 19:02:55 11° W 19:04:38 10° WNW visible
01 Dec 12.0 04:21:58 10° NE 04:26:39 20° E 04:30:57 10° SE visible
01 Dec 9.6 06:05:40 10° N 06:12:23 62° WNW 06:18:15 10° SSW visible
01 Dec 12.1 18:00:32 10° SSW 18:07:06 30° W 18:13:46 10° NW visible
